Home   Weather   Gliwice   Past weeks

Flag for Poland Past Weather in Gliwice, Poland — Yesterday and Last 2 Weeks

Now
37 °F

Fog.


Feels Like: 35 °F
Forecast: 40 / 65 °F
Wind: 3 mph from East

Location: Katowice Airport

Current Time: Sep 26, 2016 at 4:00:46 AM

Latest Report: Sep 26, 2016 at 3:30 AM


Visibility: 5 mi

Pressure: 30.18 "Hg

Humidity: 100%

Dew Point: 37 °F

Location of GliwiceLocation

Past Weather in Gliwice — Graph

°F

Gliwice Temperature Yesterday

Maximum temperature yesterday: 64 °F (at 3:00 PM)
Minimum temperature yesterday: 36 °F (at 4:30 AM)
Average temperature yesterday: 49 °F

High & Low Weather Summary for the Past Weeks

 TemperatureHumidityPressure
High82 °F (Sep 11, 1:30 PM)100% (Sep 11, 3:00 AM)30.30 "Hg (Sep 11, 3:00 AM)
Low32 °F (Sep 22, 6:00 AM)31% (Sep 14, 2:30 PM)29.83 "Hg (Sep 17, 5:00 AM)
Average57 °F80%30.07 "Hg
* Reported Sep 11 3:00 AM — Sep 26 3:00 AM, Gliwice, Weather by CustomWeather, © 2016

Note: Actual official high and low records may vary slightly from our data, if they occured in-between our weather recording intervals... More about our weather records

Advertising

Gliwice Weather History for the Previous 24 Hours

Scroll right to see more
 ConditionsComfort  
Time TempWeatherWind HumidityBarometerVisibility
3:00 AM
Mon, Sep 26
37 °FFog.3 mph100%30.18 "Hg4 mi
2:30 AM37 °FFog.3 mph100%30.21 "Hg4 mi
2:00 AM37 °FFog.3 mph100%30.21 "Hg4 mi
1:30 AM37 °FFog.2 mph100%30.21 "Hg4 mi
1:00 AM39 °FFog.3 mph100%30.21 "Hg4 mi
12:30 AM41 °FQuite cool.2 mph93%30.21 "Hg3 mi
12:00 AM41 °FFog.5 mph93%30.21 "Hg3 mi
11:30 PM
Sun, Sep 25
45 °FFog.6 mph100%30.21 "Hg4 mi
11:00 PM43 °FFog.5 mph100%30.21 "Hg2 mi
10:30 PM41 °FFog.3 mph93%30.21 "Hg4 mi
10:00 PM43 °FFog.6 mph100%30.21 "Hg5 mi
9:30 PM45 °FClear.6 mph93%30.21 "Hg10 mi
9:00 PM45 °FClear.3 mph93%30.21 "Hg10 mi
8:30 PM46 °FClear.5 mph93%30.21 "Hg10 mi
8:00 PM46 °FClear.5 mph93%30.18 "Hg10 mi
7:30 PM46 °FClear.6 mph93%30.18 "Hg10 mi
7:00 PM52 °FClear.5 mph82%30.18 "Hg10 mi
6:30 PM54 °FSunny.3 mph77%30.18 "Hg10 mi
6:00 PM59 °FSunny.7 mph59%30.18 "Hg10 mi
5:30 PM61 °FSunny.9 mph52%30.18 "Hg10 mi
5:00 PM63 °FSunny.6 mph49%30.18 "Hg10 mi
4:30 PM63 °FSunny.10 mph45%30.18 "Hg10 mi
4:00 PM64 °FPassing clouds.5 mph40%30.18 "HgN/A
3:30 PM63 °FSunny.7 mph45%30.18 "Hg10 mi
3:00 PM64 °FSunny.3 mph43%30.21 "Hg10 mi
2:30 PM63 °FSunny.8 mph49%30.21 "Hg10 mi
2:00 PM63 °FPassing clouds.8 mph45%30.21 "HgN/A
1:30 PM63 °FScattered clouds.6 mph49%30.21 "HgN/A
1:00 PM63 °FScattered clouds.7 mph49%30.24 "HgN/A
12:30 PM63 °FScattered clouds.7 mph52%30.24 "HgN/A
12:00 PM63 °FPassing clouds.6 mph45%30.24 "HgN/A
11:30 AM59 °FPassing clouds.9 mph59%30.24 "HgN/A
11:00 AM59 °FSunny.6 mph68%30.24 "Hg10 mi
10:30 AM59 °FPassing clouds.3 mph72%30.24 "HgN/A
10:00 AM57 °FPassing clouds.5 mph77%30.27 "HgN/A
9:30 AM52 °FPassing clouds.5 mph88%30.27 "HgN/A
9:00 AM50 °FClear.3 mph100%30.27 "Hg5 mi
8:30 AM45 °FClear.1 mph100%30.27 "Hg4 mi
8:00 AM39 °FFog.2 mph100%30.27 "Hg1 mi
7:30 AM36 °FFog.2 mph100%30.27 "Hg1 mi
7:00 AM36 °FFog.1 mph100%30.27 "Hg0 mi
6:30 AM36 °FFog.3 mph100%30.27 "Hg0 mi
6:00 AM36 °FFog.1 mph100%30.24 "Hg0 mi
5:30 AM36 °FFog.1 mph100%30.24 "Hg0 mi
5:00 AM36 °FFog.2 mph100%30.24 "Hg0 mi
4:30 AM36 °FFog.1 mph100%30.27 "Hg0 mi
4:00 AM37 °FFog.2 mph93%30.27 "Hg0 mi
Weather by CustomWeather, © 2016

See weather overviewHow to use our weather pages